{"data":{"norad_id":41586,"epoch":"2026-05-25T00:50:43.778688Z","epoch_age_seconds":71217,"freshness":"FRESH","line1":"1 41586U 16037A   26145.03522892 -.00000356  00000+0  00000+0 0  9993","line2":"2 41586   1.6652  69.1260 0006890 355.6766 300.9787  1.00276278  6655","mean_motion":1.00276278,"eccentricity":0.000689,"inclination_deg":1.6652,"raan_deg":69.126,"arg_perigee_deg":355.6766,"mean_anomaly_deg":300.9787,"bstar":0,"rev_number":665,"period_min":1436.0325579695,"perigee_km":35756.284824697,"apogee_km":35814.386089743,"semimajor_km":42163.47245722,"source":"CELESTRAK","updated_at":"2026-05-25T13:38:24.216391Z"}}